This is the latest recevied weather packets stored in our database for station/object DB0DUS-10. If no packets are shown the sender has not sent any weather packets the latest 1 day(s).
| Time | Temp. | Humidity | Pressure | Rain* | Wind** | Luminosity | Snow |
|---|---|---|---|---|---|---|---|
| 1778105278 | 9.44° C | 91% | 1011.8 hPa | 0 mm | - | - | - |
| 1778103478 | 9.44° C | 92% | 1011.7 hPa | 0 mm | - | - | - |
| 1778101678 | 9.44° C | 92% | 1011.4 hPa | 0 mm | - | - | - |
| 1778099878 | 9.44° C | 92% | 1011.3 hPa | 0 mm | - | - | - |
| 1778098078 | 9.44° C | 92% | 1010.8 hPa | 0 mm | - | - | - |
| 1778096579 | 9.44° C | 92% | 1010.7 hPa | 0 mm | - | - | - |
| 1778096278 | 9.44° C | 92% | 1010.7 hPa | 0.25 mm | - | - | - |
| 1778095110 | 9.44° C | 92% | 1010.5 hPa | 0.25 mm | - | - | - |
| 1778095079 | 9.44° C | 92% | 1010.5 hPa | 0.25 mm | - | - | - |
| 1778094478 | 9.44° C | 92% | 1010.3 hPa | 0.25 mm | - | - | - |
| 1778093579 | 10° C | 92% | 1010.2 hPa | 0.25 mm | - | - | - |
| 1778092678 | 10° C | 92% | 1010.1 hPa | 0 mm | - | - | - |
| 1778092079 | 10° C | 92% | 1009.9 hPa | 0.25 mm | - | - | - |
| 1778090579 | 10° C | 91% | 1009.6 hPa | 0.25 mm | - | - | - |
| 1778087579 | 10.56° C | 90% | 1009.2 hPa | 0 mm | - | - | - |
| 1778086079 | 10.56° C | 88% | 1009.1 hPa | 0 mm | - | - | - |
| 1778077082 | 11.67° C | 88% | 1008.4 hPa | 0.25 mm | - | - | - |
| 1778071079 | 11.11° C | 89% | 1008.1 hPa | 0.51 mm | - | - | - |
| 1778067479 | 10.56° C | 91% | 1007.7 hPa | 0.76 mm | - | - | - |
| 1778065679 | 11.11° C | 91% | 1007.6 hPa | 0.76 mm | - | - | - |
| 1778063879 | 11.11° C | 91% | 1007.5 hPa | 0.51 mm | - | - | - |
| 1778062079 | 11.11° C | 91% | 1007.3 hPa | 0.51 mm | - | - | - |
| 1778060580 | 11.11° C | 92% | 1007 hPa | 0.51 mm | - | - | - |
| 1778060279 | 11.11° C | 92% | 1007 hPa | 0.76 mm | - | - | - |
| 1778058479 | 11.11° C | 92% | 1006.8 hPa | 0.76 mm | - | - | - |
* Rain latest hour (hover to see other rain measurements)
** Current wind speed in m/s (hover to see current wind gust speed)